• In Germany
  • List of Countries
  • For 7 days
  • Water Temperature
  • Satellite Maps
  • Weather Map
  • Weather Widgets
  • user-avatar
    Login

    Hourly Weather Patna

    Today, 20 October, Saturday

    Time Temperature Precipitation Wind Pressure Humidity
    00:00 +27°C° 0 mm 2 mps 753 mmHg 59%
    01:00 +26°C° 0 mm 1 mps 753 mmHg 61%
    02:00 +25°C° 0 mm 1 mps 753 mmHg 64%
    03:00 +25°C° 0 mm 1 mps 753 mmHg 66%
    04:00 +25°C° 0 mm 1 mps 753 mmHg 67%
    05:00 +24°C° 0 mm 1 mps 753 mmHg 69%
    06:00 +24°C° 0 mm 1 mps 753 mmHg 71%
    07:00 +26°C° 0 mm 1 mps 754 mmHg 67%
    08:00 +27°C° 0 mm 1 mps 754 mmHg 63%
    09:00 +29°C° 0 mm 1 mps 755 mmHg 59%
    10:00 +30°C° 0 mm 1 mps 755 mmHg 53%
    11:00 +32°C° 0 mm 1 mps 755 mmHg 48%
    12:00 +34°C° 0 mm 1 mps 755 mmHg 42%
    13:00 +35°C° 0 mm 1 mps 754 mmHg 39%
    14:00 +36°C° 0 mm 2 mps 754 mmHg 35%
    15:00 +36°C° 0 mm 2 mps 753 mmHg 32%
    16:00 +35°C° 0 mm 2 mps 753 mmHg 35%
    17:00 +32°C° 0 mm 2 mps 753 mmHg 39%
    18:00 +30°C° 0 mm 1 mps 753 mmHg 42%
    19:00 +30°C° 0 mm 2 mps 753 mmHg 44%
    20:00 +29°C° 0 mm 2 mps 753 mmHg 45%
    21:00 +28°C° 0 mm 2 mps 754 mmHg 47%
    22:00 +27°C° 0 mm 2 mps 754 mmHg 49%
    23:00 +27°C° 0 mm 2 mps 754 mmHg 51%

    Tomorrow, 21 October, Sunday

    Time Temperature Precipitation Wind Pressure Humidity
    00:00 +26°C° 0 mm 2 mps 754 mmHg 53%
    01:00 +26°C° 0 mm 2 mps 754 mmHg 54%
    02:00 +25°C° 0 mm 1 mps 754 mmHg 55%
    03:00 +25°C° 0 mm 1 mps 754 mmHg 57%
    04:00 +24°C° 0 mm 1 mps 754 mmHg 58%
    05:00 +24°C° 0 mm 1 mps 754 mmHg 60%
    06:00 +24°C° 0 mm 1 mps 754 mmHg 62%
    07:00 +25°C° 0 mm 1 mps 755 mmHg 60%
    08:00 +27°C° 0 mm 1 mps 756 mmHg 57%
    09:00 +28°C° 0 mm 1 mps 756 mmHg 54%
    10:00 +30°C° 0 mm 2 mps 756 mmHg 49%
    11:00 +31°C° 0 mm 2 mps 756 mmHg 43%
    12:00 +34°C° 0 mm 2 mps 756 mmHg 37%
    13:00 +35°C° 0 mm 3 mps 755 mmHg 35%
    14:00 +35°C° 0 mm 3 mps 754 mmHg 33%
    15:00 +36°C° 0 mm 4 mps 753 mmHg 31%
    16:00 +34°C° 0 mm 3 mps 753 mmHg 34%
    17:00 +31°C° 0 mm 3 mps 753 mmHg 38%
    18:00 +29°C° 0 mm 2 mps 753 mmHg 42%
    19:00 +28°C° 0 mm 2 mps 753 mmHg 43%
    20:00 +28°C° 0 mm 2 mps 753 mmHg 44%
    21:00 +27°C° 0 mm 2 mps 754 mmHg 45%
    22:00 +26°C° 0 mm 2 mps 754 mmHg 46%
    23:00 +25°C° 0 mm 2 mps 754 mmHg 46%

    Day after tomorrow, 22 October, Monday

    Time Temperature Precipitation Wind Pressure Humidity
    00:00 +25°C° 0 mm 2 mps 754 mmHg 47%
    01:00 +24°C° 0 mm 2 mps 753 mmHg 47%
    02:00 +24°C° 0 mm 2 mps 753 mmHg 47%
    03:00 +24°C° 0 mm 2 mps 753 mmHg 47%
    04:00 +23°C° 0 mm 2 mps 753 mmHg 48%
    05:00 +23°C° 0 mm 2 mps 754 mmHg 49%
    06:00 +21°C° 0 mm 2 mps 754 mmHg 50%
    07:00 +24°C° 0 mm 2 mps 754 mmHg 48%
    08:00 +25°C° 0 mm 2 mps 755 mmHg 46%
    09:00 +27°C° 0 mm 2 mps 756 mmHg 44%
    10:00 +29°C° 0 mm 2 mps 756 mmHg 39%
    11:00 +31°C° 0 mm 2 mps 755 mmHg 34%
    12:00 +34°C° 0 mm 2 mps 755 mmHg 29%
    13:00 +34°C° 0 mm 3 mps 754 mmHg 28%
    14:00 +34°C° 0 mm 3 mps 753 mmHg 27%
    15:00 +35°C° 0 mm 4 mps 752 mmHg 25%
    16:00 +33°C° 0 mm 3 mps 752 mmHg 29%
    17:00 +30°C° 0 mm 3 mps 752 mmHg 33%
    18:00 +28°C° 0 mm 2 mps 752 mmHg 37%
    19:00 +27°C° 0 mm 2 mps 753 mmHg 38%
    20:00 +26°C° 0 mm 2 mps 753 mmHg 39%
    21:00 +25°C° 0 mm 2 mps 754 mmHg 40%
    22:00 +24°C° 0 mm 1 mps 754 mmHg 41%
    23:00 +24°C° 0 mm 1 mps 754 mmHg 42%

    23 October, Tuesday

    Time Temperature Precipitation Wind Pressure Humidity
    00:00 +23°C° 0 mm 1 mps 754 mmHg 42%
    01:00 +23°C° 0 mm 1 mps 753 mmHg 43%
    02:00 +22°C° 0 mm 1 mps 753 mmHg 44%
    03:00 +21°C° 0 mm 2 mps 753 mmHg 45%
    04:00 +21°C° 0 mm 1 mps 753 mmHg 47%
    05:00 +21°C° 0 mm 1 mps 753 mmHg 48%
    06:00 +20°C° 0 mm 1 mps 753 mmHg 49%
    07:00 +22°C° 0 mm 1 mps 754 mmHg 47%
    08:00 +24°C° 0 mm 1 mps 755 mmHg 45%
    09:00 +25°C° 0 mm 1 mps 756 mmHg 43%
    10:00 +27°C° 0 mm 1 mps 755 mmHg 39%
    11:00 +29°C° 0 mm 1 mps 755 mmHg 36%
    12:00 +30°C° 0 mm 2 mps 755 mmHg 32%
    13:00 +31°C° 0 mm 2 mps 754 mmHg 31%
    14:00 +32°C° 0 mm 2 mps 753 mmHg 29%
    15:00 +32°C° 0 mm 2 mps 753 mmHg 27%
    16:00 +30°C° 0 mm 2 mps 753 mmHg 31%
    17:00 +29°C° 0 mm 2 mps 753 mmHg 35%
    18:00 +27°C° 0 mm 2 mps 753 mmHg 39%
    19:00 +26°C° 0 mm 2 mps 753 mmHg 41%
    20:00 +25°C° 0 mm 2 mps 753 mmHg 42%
    21:00 +24°C° 0 mm 2 mps 754 mmHg 44%
    22:00 +24°C° 0 mm 2 mps 754 mmHg 45%
    23:00 +23°C° 0 mm 1 mps 754 mmHg 46%

    24 October, Wednesday

    Time Temperature Precipitation Wind Pressure Humidity
    00:00 +23°C° 0 mm 1 mps 754 mmHg 47%
    01:00 +23°C° 0 mm 1 mps 753 mmHg 47%
    02:00 +22°C° 0 mm 1 mps 753 mmHg 48%
    03:00 +22°C° 0 mm 1 mps 753 mmHg 49%
    04:00 +21°C° 0 mm 1 mps 753 mmHg 50%
    05:00 +21°C° 0 mm 1 mps 753 mmHg 51%
    06:00 +21°C° 0 mm 1 mps 754 mmHg 52%
    07:00 +23°C° 0 mm 1 mps 754 mmHg 49%
    08:00 +24°C° 0 mm 1 mps 755 mmHg 46%
    09:00 +26°C° 0 mm 1 mps 756 mmHg 44%
    10:00 +28°C° 0 mm 1 mps 755 mmHg 39%
    11:00 +28°C° 0 mm 0 mps 755 mmHg 35%
    12:00 +30°C° 0 mm 0 mps 755 mmHg 31%
    13:00 +32°C° 0 mm 1 mps 754 mmHg 29%
    14:00 +33°C° 0 mm 1 mps 754 mmHg 28%
    15:00 +33°C° 0 mm 1 mps 753 mmHg 26%
    16:00 +31°C° 0 mm 1 mps 753 mmHg 29%
    17:00 +30°C° 0 mm 1 mps 753 mmHg 33%
    18:00 +28°C° 0 mm 1 mps 753 mmHg 36%
    19:00 +27°C° 0 mm 1 mps 754 mmHg 38%
    20:00 +27°C° 0 mm 1 mps 754 mmHg 40%
    21:00 +26°C° 0 mm 1 mps 754 mmHg 42%
    22:00 +25°C° 0 mm 1 mps 754 mmHg 43%
    23:00 +25°C° 0 mm 1 mps 754 mmHg 45%

    25 October, Thursday

    Time Temperature Precipitation Wind Pressure Humidity
    00:00 +24°C° 0 mm 1 mps 754 mmHg 46%
    01:00 +24°C° 0 mm 1 mps 754 mmHg 47%
    02:00 +21°C° 0 mm 0 mps 754 mmHg 49%
    03:00 +21°C° 0 mm 0 mps 754 mmHg 50%
    04:00 +20°C° 0 mm 0 mps 754 mmHg 51%
    05:00 +22°C° 0 mm 1 mps 755 mmHg 52%
    06:00 +22°C° 0 mm 1 mps 755 mmHg 53%
    07:00 +23°C° 0 mm 1 mps 756 mmHg 51%
    08:00 +25°C° 0 mm 1 mps 756 mmHg 48%
    09:00 +27°C° 0 mm 1 mps 757 mmHg 46%
    10:00 +29°C° 0 mm 1 mps 757 mmHg 42%
    11:00 +30°C° 0 mm 1 mps 757 mmHg 37%
    12:00 +32°C° 0 mm 1 mps 756 mmHg 33%
    13:00 +33°C° 0 mm 1 mps 756 mmHg 31%
    14:00 +33°C° 0 mm 1 mps 755 mmHg 29%
    15:00 +34°C° 0 mm 2 mps 754 mmHg 26%
    16:00 +32°C° 0 mm 2 mps 754 mmHg 29%
    17:00 +30°C° 0 mm 1 mps 754 mmHg 32%
    18:00 +28°C° 0 mm 1 mps 754 mmHg 35%
    19:00 +27°C° 0 mm 1 mps 755 mmHg 37%
    20:00 +26°C° 0 mm 1 mps 755 mmHg 38%
    21:00 +26°C° 0 mm 1 mps 756 mmHg 40%
    22:00 +25°C° 0 mm 1 mps 756 mmHg 41%
    23:00 +25°C° 0 mm 1 mps 756 mmHg 42%
    Show more